Voltar ao catálogo

FENGYUN 1C DEB

AtivoSSO
NORAD 29770·DEBRIS·🇨🇳 China

Lançado May 10, 1999 de Taiyuan Satellite Launch Center

Loading…

Próximas Passagens (próximas 24 horas)

TLE

AtualizadoSource: Space-Track

Época: Sep 12, 2026, 17:12 UTC

1 29770U 99025BL  26255.71670729  .00001743  00000-0  79923-3 0  9997
2 29770  98.8335 336.3708 0062013 204.3552 309.6116 14.21627879  9749

Acompanhe FENGYUN 1C DEB em tempo real com AllMySat

Download on the App Store